User: anonymous   Login
Location: Unspecified
(0.0000°N, 0.0000°E)
Time: 01:19:22
(UTC+00:00)
Language:

Explorer 22 - Orbit

View from above orbital plane
View from above orbital plane
View from above satellite
View from above satellite

Ground track
Ground track

The orbit data is extracted from the following two-line orbital elements,

1 00899U 64064A   24201.35604659  .00000331  00000-0  28297-3 0  9991
2 00899  79.6906 170.4462 0119228 199.2353 160.4278 13.82631135  8520
Epoch (UTC): 19 July 2024 08:32:42
Eccentricity: 0.0119228
inclination: 79.6906°
perigee height: 867 km
apogee height: 1042 km
right ascension of ascending node: 170.4462°
argument of perigee: 199.2353°
revolutions per day: 13.82631135
mean anomaly at epoch: 160.4278°
orbit number at epoch: 852

The dashed part of the orbit path shows where the satellite is in the earth's shadow,  

DLR